Starlink 30086

operational
NORAD ID: 56297 Int'l Des: 2023-056 Owner: SPXS Country: US Constellation: starlink
LEOCIRCULAR

关于 Starlink 30086

正在加载描述...

实时位置

正在加载3D地球...

即将过境

高度历史

Altitude vs Time

uPlot chart will show altitude changes over time

两行轨道根数

1 56297U 23056M 25352.26253245 .00001214 00000-0 10494-3 0 9990
2 56297 43.0009 292.7863 0001235 261.4131 98.6572 15.02539924147776
Epoch: Dec 18, 2025 • Age: 11 hours

当前状态

高度 560.3 km
速度 7.59 km/s
星下点 29.58°N, 25.22°W
发射日期 Apr 19, 2023
运行时间 2.6 years
类型 internet

技术详情

分类 Payload
质量 730.00 kg
干质量 700.00 kg
总质量 730.00 kg
长度 0.30 m
直径 4.10 m
跨度 29.00 m
形状 Box + pan
制造商 SPXS
平台类型 Starlink V2M
阶段状态 In Orbit
所有者/国家 SPXS/US

大型星座

Loading constellations...